Printer-friendly version

IAU Minor Planet Center

Minor Planet Center

MPEC 2002-F10 : 2002 EW11

The following Minor Planet Electronic Circular may be linked-to from your own Web pages, but must not otherwise be redistributed electronically.


Read MPEC 2002-F09 Read MPEC 2002-F11


M.P.E.C. 2002-F10                                Issued 2002 Mar. 18, 16:18 UT

     The Minor Planet Electronic Circulars contain information on unusual
         minor planets and routine data on comets.  They are published
   on behalf of Commission 20 of the International Astronomical Union by the
          Minor Planet Center, Smithsonian Astrophysical Observatory,
                          Cambridge, MA 02138, U.S.A.

             Prepared using the Tamkin Foundation Computer Network

                              MPC@CFA.HARVARD.EDU
          URL http://cfa-www.harvard.edu/iau/mpc.html  ISSN 1523-6714

                                   2002 EW11

Observations:
     K02E11W* C2002 03 14.18094 10 21 42.78 +13 33 05.1          19.3        704
     K02E11W  C2002 03 14.19388 10 21 40.47 +13 34 37.2          19.9        704
     K02E11W  C2002 03 14.21988 10 21 35.74 +13 37 40.0          19.5        704
     K02E11W  C2002 03 14.23290 10 21 33.30 +13 39 11.8          19.7        704
     K02E11W  C2002 03 16.24564 10 16 09.80 +18 39 08.1          19.8        704
     K02E11W  C2002 03 16.25900 10 16 06.04 +18 41 39.3          19.5        704
     K02E11W  C2002 03 16.25906 10 16 06.00 +18 41 39.6          19.4        704
     K02E11W  C2002 03 16.27182 10 16 02.34 +18 44 04.5          19.5        704
     K02E11W  C2002 03 16.27248 10 16 02.16 +18 44 11.6          20.0        704
     K02E11W  C2002 03 16.28567 10 15 58.47 +18 46 41.5          20.0        704
     K02E11W  C2002 03 16.28593 10 15 58.39 +18 46 44.8          19.8        704
     K02E11W  C2002 03 16.29911 10 15 54.71 +18 49 13.8          19.6        704
     K02E11W  C2002 03 16.29943 10 15 54.58 +18 49 17.4          19.9        704
     K02E11W  C2002 03 17.53372 10 10 51.18 +23 30 43.3          18.7 R      344
     K02E11W  C2002 03 17.54397 10 10 47.16 +23 33 30.1                      344
     K02E11W  C2002 03 17.85664 10 09 04.39 +25 01 42.3                      557
     K02E11W  C2002 03 17.85702 10 09 04.18 +25 01 49.8                      557
     K02E11W  C2002 03 17.85740 10 09 03.97 +25 01 56.4                      557
     K02E11W  C2002 03 17.85778 10 09 03.79 +25 02 03.6                      557
     K02E11W  C2002 03 17.88405 10 08 52.17 +25 09 55.9                      246
     K02E11W  C2002 03 17.88666 10 08 51.69 +25 10 49.7                      246
     K02E11W  C2002 03 17.88751 10 08 51.29 +25 11 05.4                      246
     K02E11W  C2002 03 17.88831 10 08 50.97 +25 11 19.8                      246
     K02E11W  C2002 03 17.88951 10 08 50.49 +25 11 40.7                      246
     K02E11W  C2002 03 17.89019 10 08 50.21 +25 11 53.9                      246
     K02E11W  C2002 03 17.89100 10 08 49.76 +25 12 07.5                      246
     K02E11W  C2002 03 18.21872 10 06 48.66 +26 57 54.0          19.2 R      651
     K02E11W  C2002 03 18.21975 10 06 48.02 +26 58 16.0          19.2 R      651
     K02E11W  C2002 03 18.22083 10 06 47.59 +26 58 37.3          19.0 R      651

Observer details:
246 Klet Observatory-KLENOT.  Observers J. Ticha, M. Tichy, M. Kocer.  1.06-m
    KLENOT telescope + CCD.
344 Bohyunsan Optical Astronomy Observatory.  Observer J.-B. Jeon.  1.8-m f/8
    reflector + CCD.
557 Ondrejov.  Observer L. Sarounova.  0.65-m f/3.6 reflector + CCD.
651 Grasslands Observatory, Tucson.  Observer J. E. McGaha.  0.62-m f/5.1
    reflector + CCD.
704 Lincoln Laboratory ETS, New Mexico.  Observers M. Blythe, F. Shelly,
    M. Bezpalko, R. Huber, L. Manguso, S. Adams, J. Piscitelli.  Measurers
    J. Stuart, R. Sayer, J. B. Evans, H. Viggh.  1.0-m f/2.15 reflector + CCD.

Orbital elements:
2002 EW11
Epoch 2002 Mar. 7.0 TT = JDT 2452340.5                  MPC
M 329.82938              (2000.0)            P               Q
n   0.52635634     Peri.   66.54914     -0.55204949     +0.83373053
a   1.5192042      Node   169.91883     -0.78716916     -0.51652689
e   0.4288572      Incl.    3.80264     -0.27496557     -0.19517526
P   1.87           H   25.4           G   0.15
From 29 observations 2002 Mar. 14-18.

Ephemeris:
2002 EW11                a,e,i = 1.52, 0.43, 4                   q = 0.8677
Date    TT    R. A. (2000) Decl.     Delta      r     Elong.  Phase     V
2002 03 07    10 30.54   +05 45.9    0.097    1.088   170.4     8.8    21.1
2002 03 08    10 29.73   +06 24.4    0.091    1.082   169.2     9.9    21.0
2002 03 09    10 28.83   +07 08.5    0.085    1.076   167.9    11.2    20.9
2002 03 10    10 27.82   +07 59.5    0.079    1.070   166.4    12.6    20.8
2002 03 11    10 26.68   +08 58.9    0.073    1.064   164.9    14.1    20.6
2002 03 12    10 25.37   +10 08.8    0.067    1.058   163.2    15.8    20.5
2002 03 13    10 23.84   +11 32.3    0.061    1.051   161.3    17.7    20.3
2002 03 14    10 22.02   +13 13.4    0.055    1.045   159.1    19.8    20.2
2002 03 15    10 19.79   +15 18.0    0.049    1.040   156.6    22.3    20.0
2002 03 16    10 16.98   +17 55.0    0.043    1.034   153.6    25.3    19.8
2002 03 17    10 13.29   +21 17.7    0.038    1.028   150.0    29.0    19.6
2002 03 18    10 08.17   +25 47.2    0.032    1.022   145.3    33.7    19.4
2002 03 19    10 00.53   +31 57.0    0.027    1.016   139.0    40.0    19.2
2002 03 20    09 47.78   +40 38.5    0.023    1.011   130.2    48.8    19.0
2002 03 21    09 22.20   +52 54.5    0.019    1.005   117.6    61.4    19.0
2002 03 22    08 09.27   +68 30.7    0.017    1.000   100.5    78.5    19.3
2002 03 23    03 31.2    +76 28.0    0.016    0.994    80.7    98.4    20.0
2002 03 24    00 26.71   +63 55.8    0.018    0.989    62.7   116.3    21.2
2002 03 25    23 39.68   +50 48.2    0.022    0.983    49.7   129.3    22.7
2002 03 26    23 20.50   +41 11.0    0.026    0.978    41.3   137.7    24.0
2002 03 27    23 10.28   +34 21.5    0.031    0.973    36.1   142.8    25.0

Timothy B. Spahr             (C) Copyright 2002 MPC           M.P.E.C. 2002-F10

Read MPEC 2002-F09 Read MPEC 2002-F11


Our Web policy. Index to the CBAT/MPC/ICQ pages.


Valid HTML 4.01!